TimeICT,TemperatureF,Dew PointF,Humidity,Sea Level PressureIn,VisibilityMPH,Wind Direction,Wind SpeedMPH,Gust SpeedMPH,PrecipitationIn,Events,Conditions,WindDirDegrees,DateUTC
12:00 AM,80.6,75.2,84,29.74,6.2,SW,5.8,-,N/A,,Scattered Clouds,230,2013-09-24 17:00:00
12:30 AM,80.6,75.2,84,29.74,6.2,SW,5.8,-,N/A,,Scattered Clouds,230,2013-09-24 17:30:00
1:00 AM,80.6,75.2,84,29.74,6.2,SW,3.5,-,N/A,,Scattered Clouds,230,2013-09-24 18:00:00
8:30 AM,82.4,75.2,79,29.80,6.2,South,8.1,-,N/A,,Scattered Clouds,190,2013-09-25 01:30:00
9:00 AM,82.4,77.0,84,29.80,6.2,SSW,8.1,-,N/A,,Scattered Clouds,210,2013-09-25 02:00:00
9:30 AM,84.2,77.0,79,29.80,6.2,SSW,4.6,-,N/A,,Partly Cloudy,200,2013-09-25 02:30:00
10:00 AM,84.2,75.2,74,29.80,6.2,SSW,9.2,-,N/A,,Partly Cloudy,200,2013-09-25 03:00:00
10:30 AM,86.0,77.0,74,29.80,6.2,SSW,4.6,-,N/A,,Partly Cloudy,200,2013-09-25 03:30:00
11:00 AM,87.8,75.2,66,29.77,6.2,SW,11.5,-,N/A,,Scattered Clouds,230,2013-09-25 04:00:00
11:30 AM,87.8,77.0,70,29.77,6.2,WSW,8.1,-,N/A,,Scattered Clouds,250,2013-09-25 04:30:00
12:00 PM,89.6,75.2,62,29.77,6.2,WSW,11.5,-,N/A,,Scattered Clouds,250,2013-09-25 05:00:00
12:30 PM,87.8,75.2,66,29.74,6.2,WSW,11.5,-,N/A,,Scattered Clouds,250,2013-09-25 05:30:00
1:00 PM,89.6,75.2,62,29.74,6.2,West,11.5,-,N/A,,Scattered Clouds,270,2013-09-25 06:00:00
1:30 PM,89.6,75.2,62,29.71,6.2,WSW,10.4,-,N/A,,Scattered Clouds,250,2013-09-25 06:30:00
2:00 PM,89.6,75.2,62,29.71,6.2,WSW,8.1,-,N/A,,Scattered Clouds,250,2013-09-25 07:00:00
2:30 PM,89.6,75.2,62,29.68,6.2,SW,8.1,-,N/A,,Scattered Clouds,230,2013-09-25 07:30:00
3:00 PM,86.0,77.0,74,29.68,5.0,SW,8.1,-,N/A,,Mostly Cloudy,220,2013-09-25 08:00:00
3:30 PM,78.8,77.0,94,29.71,4.3,WSW,11.5,-,N/A,Rain-Thunderstorm,Light Thunderstorms and Rain,240,2013-09-25 08:30:00
4:00 PM,78.8,77.0,94,29.68,5.6,SW,8.1,-,N/A,,Mostly Cloudy,220,2013-09-25 09:00:00
4:30 PM,78.8,77.0,94,29.68,5.6,SW,5.8,-,N/A,,Mostly Cloudy,220,2013-09-25 09:30:00
5:00 PM,82.4,77.0,84,29.71,5.6,WSW,3.5,-,N/A,,Mostly Cloudy,240,2013-09-25 10:00:00
5:30 PM,82.4,77.0,84,29.71,5.6,SSW,3.5,-,N/A,,Mostly Cloudy,210,2013-09-25 10:30:00
6:00 PM,82.4,77.0,84,29.71,5.6,Variable,3.5,-,N/A,,Mostly Cloudy,0,2013-09-25 11:00:00
6:30 PM,78.8,77.0,94,29.77,2.5,NNW,12.7,-,N/A,Rain-Thunderstorm,Thunderstorms and Rain,340,2013-09-25 11:30:00
7:00 PM,78.8,77.0,94,29.74,5.0,WNW,8.1,-,N/A,Rain-Thunderstorm,Light Thunderstorms and Rain,290,2013-09-25 12:00:00
7:30 PM,78.8,77.0,94,29.74,5.0,ENE,3.5,-,N/A,Rain,Light Rain,60,2013-09-25 12:30:00
8:00 PM,78.8,77.0,94,29.80,5.0,East,6.9,-,N/A,Rain,Light Rain,80,2013-09-25 13:00:00
8:30 PM,78.8,75.2,89,29.80,5.0,ENE,3.5,-,N/A,Rain,Light Rain,60,2013-09-25 13:30:00
9:00 PM,78.8,75.2,89,29.83,5.0,Calm,Calm,-,N/A,Rain,Light Rain,0,2013-09-25 14:00:00
9:30 PM,78.8,75.2,89,29.83,5.0,ENE,3.5,-,N/A,Rain,Light Rain,60,2013-09-25 14:30:00
10:00 PM,78.8,75.2,89,29.83,5.0,Calm,Calm,-,N/A,Rain,Light Rain,0,2013-09-25 15:00:00
10:30 PM,78.8,75.2,89,29.83,5.0,Calm,Calm,-,N/A,Rain,Light Rain,0,2013-09-25 15:30:00
11:00 PM,78.8,75.2,89,29.80,5.0,Calm,Calm,-,N/A,Rain,Light Rain,0,2013-09-25 16:00:00
11:30 PM,78.8,75.2,89,29.80,5.0,Calm,Calm,-,N/A,Rain,Light Rain,0,2013-09-25 16:30:00